CZ-2D R/B

Last updated on Mon Sep 21 2026 00:02:09 GMT+0000 (Coordinated Universal Time)

1 28738U 05024B 26263.05222120 .00075306 00000+0 36596-3 0 9994 2 28738 97.3424 288.0306 0002959 70.3422 289.8166 15.82224385170276
UTC large
Height (km)
Speed (km/s)
/
Latitude / Longitude
Inclination (degrees)
Orbital Period (minutes)
Azimuth
Elevation
Range (km)
Doppler Factor

Next 0 passes for location: London (51.5072 / 0.1276)

No passes found over London.
CZ-2D R/B